Location: Brompton
(51.4000°N, 0.5333°E)
Time: 17:31:40
(UTC+00:00)

Cosmos 1908 Rocket - Pass Details

Date: 11 May 2021
Orbit: 605 x 632 km, 82.5° (Epoch: 21 June)

Event Time Altitude Azimuth Distance (km) Brightness Sun altitude
Rises 23:11:48 0° 349° (N) 2,942 8.7 -19.8°
Reaches altitude 10° 23:14:03 10° 350° (N) 2,029 7.4 -19.9°
Maximum altitude 23:18:34 89° 82° (E) 640 3.5 -20.0°
Enters shadow 23:19:43 50° 169° (SSE) 806 3.7 -20.1°
